GFSWCAN_850_dewp_261.txt.gz
Dewpoint
-4 -5 -4 -5 -6 -5 -5 -6 -9 -8 -8 -8 -6 -6 -6 -6 -6 -3 -4 -1 -1 -2 -4 -5 -6 -6 -7 -6 1 -4 -2 -2 -1 2 0 1 1 -6 -7 -7 -4 -3 -1 0 -0 1 1 -11 -8 -6 -8 -7 -9 -9
-5 -4 -7 -6 -4 -5 -4 -5 -9 -9 -7 -10 -7 -7 -6 -8 -6 -5 -4 -3 -1 -2 -3 -4 -4 -5 -4 -7 -5 -4 -4 -4 -4 0 -1 -1 -1 -2 -6 -3 -7 -4 -4 -1 -2 -2 -7 -9 -8 -8 -7 -8 -9 -9
-5 -5 -7 -7 -5 -5 -3 -5 -9 -10 -9 -9 -7 -8 -7 -8 -6 -5 -4 -4 -1 -1 -1 -3 -3 -3 -4 -5 -3 -2 -5 -5 -5 -5 -2 -0 -1 -4 -3 -5 -6 -7 -8 -5 -4 -7 -7 -9 -9 -8 -8 -10 -9 -8
-4 -5 -6 -6 -6 -7 -4 -5 -8 -12 -9 -7 -7 -8 -7 -8 -6 -5 -4 -4 -1 -1 0 -3 -5 -4 -3 -3 -2 -2 -4 -3 -4 -3 1 1 -0 -7 -5 -6 -6 -7 -8 -7 -6 -9 -9 -9 -10 -9 -9 -9 -8 -7
-4 -5 -5 -6 -6 -5 -4 -5 -8 -12 -11 -7 -8 -8 -8 -7 -6 -5 -4 -4 -2 -2 -1 -4 -4 -4 -2 -2 -3 -2 -2 -2 -3 -0 2 1 -6 -5 -5 -6 -5 -8 -7 -4 -4 -9 -8 -9 -9 -9 -8 -8 -8 -6
-3 -4 -5 -5 -7 -6 -4 -6 -11 -13 -9 -6 -8 -9 -8 -7 -6 -4 -5 -5 -2 -2 -2 0 -3 -3 -2 -3 -3 -3 -3 -3 -2 -0 -2 -7 -6 -5 1 -4 -9 -11 -10 -8 -9 -9 -9 -8 -8 -9 -9 -8 -8 -5
-3 -4 -4 -6 -8 -5 -6 -7 -11 -11 -8 -6 -7 -8 -8 -7 -5 -5 -4 -2 -1 -1 -2 -1 -1 -3 -3 -3 -4 -3 -3 -2 -1 -0 -1 -4 -5 -4 -0 -3 -10 -9 -10 -9 -9 -10 -8 -9 -8 -8 -9 -8 -4 -5
-4 -4 -5 -7 -6 -5 -7 -7 -10 -10 -8 -7 -7 -8 -8 -6 -5 -4 -8 -4 -1 -1 -3 -2 -1 -2 -2 -1 -0 -1 -0 -0 0 -0 -2 -3 -5 -3 0 -5 -7 -9 -10 -10 -9 -9 -8 -8 -8 -8 -7 -5 -4 -8
-4 -4 -6 -8 -6 -5 -7 -8 -10 -8 -7 -7 -7 -7 -6 -5 -5 -6 -8 -4 -1 -2 -2 -4 -4 -2 -1 -1 -2 -0 -1 1 -2 -0 -2 -3 -1 -1 -4 -6 -8 -9 -10 -10 -9 -9 -9 -9 -8 -6 -6 -5 -7 -10
-3 -5 -8 -8 -6 -6 -7 -8 -10 -12 -7 -6 -5 -5 -5 -6 -9 -7 -3 -1 -1 -1 -4 -5 -9 -3 -2 -3 -2 -3 -4 -3 -2 -4 -5 -2 -3 -6 -7 -8 -9 -9 -9 -9 -9 -9 -9 -8 -8 -5 -4 -6 -11 -10
-4 -7 -9 -8 -7 -6 -6 -7 -9 -7 -6 -5 -5 -5 -4 -8 -7 -3 -2 -1 -2 -1 -3 -8 -7 -4 -5 -3 -2 -6 -3 -5 -4 -4 -4 -3 -6 -6 -8 -8 -9 -9 -9 -9 -9 -9 -8 -8 -6 -4 -4 -6 -9 -6
-6 -9 -9 -7 -7 -6 -6 -7 -9 -6 -5 -5 -6 -8 -3 -4 -3 -1 -1 -1 -3 -2 -6 -5 -4 -5 -6 -3 -5 -4 -5 -6 -4 -5 -3 -4 -7 -9 -9 -9 -9 -8 -8 -9 -8 -8 -8 -7 -7 -5 -3 -5 -5 -5
-7 -7 -9 -8 -7 -6 -7 -8 -8 -5 -5 -5 -5 -3 -3 -2 -2 -2 -2 -1 -1 -7 -8 -6 -2 -4 -3 -5 -5 -5 -4 -4 -5 -2 -3 -7 -9 -7 -8 -7 -8 -8 -8 -8 -7 -6 -5 -6 -7 -5 -4 -5 -6 -12
-7 -7 -8 -9 -6 -5 -6 -6 -6 -5 -5 -5 -5 -2 -2 -2 -2 -4 -4 -5 -8 -8 -6 -4 -4 -6 -6 -4 -5 -4 -6 -5 -3 -3 -5 -5 -7 -5 -7 -4 -7 -7 -7 -7 -5 -4 -5 -5 -4 -4 -5 -10 -12 -15
-10 -11 -11 -10 -8 -7 -7 -5 -4 -5 -6 -4 -2 -2 -2 -6 -9 -8 -9 -7 -8 -7 -5 -4 -6 -7 -4 -3 -5 -4 -3 -3 -5 -6 -6 -5 -5 -3 -3 -2 -4 -7 -6 -4 -2 -3 -3 -4 -4 -7 -11 -13 -16 -18
-8 -9 -7 -10 -8 -6 -5 -4 -5 -6 -5 -3 -3 -3 -5 -2 0 -2 -4 -6 -6 -5 -5 -7 -2 -1 -3 -4 -5 -3 -5 -6 -7 -6 -4 -3 -4 -2 -3 -2 -2 -4 -6 -5 -1 -3 -5 -8 -9 -11 -14 -17 -18 -18
-5 -5 -6 -7 -7 -5 -4 -5 -5 -5 -3 -4 -3 -5 -4 -3 -1 -3 -6 -5 -5 -4 -1 -3 -1 -4 -7 -6 -7 -8 -7 -8 -4 -2 -1 -2 -2 -2 -2 -2 -2 -3 -2 -2 -4 -5 -8 -10 -12 -16 -16 -19 -22 -22
-5 -5 -5 -4 -4 -4 -5 -5 -4 -3 -2 -5 -3 -3 -4 -4 -3 -5 -7 -5 -4 -5 -5 -7 -7 -5 -4 -7 -7 -5 -1 -0 -1 -1 -2 -2 -2 -2 -2 -2 -2 -3 -4 -4 -5 -6 -8 -8 -8 -9 -11 -18 -16 -13
-6 -5 -5 -6 -6 -4 -4 -4 -3 -3 -3 -4 -4 -4 -4 -4 -5 -6 -5 -5 -6 -7 -7 -7 -7 -6 -8 -9 -9 -5 -1 -1 -1 -1 -2 -2 -2 -2 -3 -4 -4 -5 -5 -6 -8 -8 -9 -10 -10 -11 -11 -11 -10 -9
-5 -5 -5 -4 -4 -3 -4 -4 -6 -5 -4 -4 -5 -4 -5 -5 -5 -5 -4 -5 -4 -4 -3 -4 -5 -5 -5 -4 -5 -2 -1 -1 -2 -2 -2 -2 -3 -3 -4 -4 -5 -7 -8 -9 -10 -10 -11 -11 -11 -11 -12 -13 -18 -11
-4 -4 -4 -4 -4 -4 -5 -5 -5 -5 -5 -3 -4 -4 -4 -5 -4 -4 -2 -2 -2 -2 -2 -3 -3 -2 -2 -2 -2 -2 -2 -2 -2 -2 -3 -3 -3 -4 -5 -6 -7 -8 -9 -9 -10 -14 -12 -11 -11 -11 -24 -20 -25 -25
-5 -6 -4 -5 -6 -6 -6 -5 -5 -5 -4 -4 -5 -4 -3 -2 -2 -3 -3 -3 -3 -3 -3 -2 -2 -2 -2 -2 -2 -2 -2 -2 -2 -3 -3 -4 -4 -5 -6 -7 -8 -8 -8 -10 -10 -10 -10 -12 -11 -14 -16 -23 -23 -21
-9 -9 -6 -6 -5 -5 -5 -5 -7 -6 -4 -5 -5 -4 -4 -4 -4 -3 -4 -4 -4 -3 -2 -2 -3 -3 -3 -3 -3 -3 -3 -4 -4 -4 -4 -4 -5 -6 -7 -7 -8 -9 -11 -12 -12 -11 -10 -14 -20 -21 -21 -22 -21 -23
-9 -8 -6 -6 -6 -4 -6 -6 -7 -7 -7 -7 -7 -5 -4 -5 -6 -5 -5 -5 -5 -4 -3 -3 -4 -3 -3 -3 -3 -4 -4 -4 -4 -4 -5 -6 -7 -8 -10 -11 -11 -11 -12 -12 -12 -11 -11 -17 -20 -17 -20 -22 -22 -21
-7 -7 -6 -6 -8 -6 -5 -5 -6 -7 -7 -8 -7 -6 -5 -8 -6 -5 -4 -5 -4 -4 -4 -4 -4 -4 -5 -5 -5 -5 -5 -6 -6 -7 -8 -9 -10 -12 -12 -12 -12 -12 -13 -12 -13 -17 -20 -22 -22 -21 -21 -22 -22 -23
-7 -8 -8 -7 -8 -7 -8 -6 -6 -7 -8 -7 -8 -10 -9 -7 -7 -5 -4 -4 -5 -5 -4 -5 -5 -5 -5 -6 -6 -7 -8 -8 -9 -10 -11 -11 -10 -8 -9 -9 -8 -11 -16 -20 -22 -21 -21 -21 -21 -21 -22 -23 -23 -22
-8 -7 -9 -9 -9 -9 -7 -9 -10 -8 -8 -7 -8 -7 -8 -8 -7 -7 -7 -7 -6 -6 -5 -5 -5 -6 -6 -7 -8 -9 -10 -10 -11 -12 -14 -14 -14 -12 -11 -11 -12 -14 -21 -21 -21 -21 -21 -21 -22 -22 -22 -22 -23 -22
-9 -9 -8 -8 -8 -9 -8 -8 -8 -8 -8 -11 -10 -8 -8 -8 -7 -8 -8 -8 -7 -6 -6 -6 -6 -7 -8 -10 -12 -14 -15 -16 -17 -18 -20 -21 -22 -21 -21 -21 -21 -21 -21 -22 -22 -22 -22 -23 -23 -22 -22 -21 -22 -23
-8 -9 -10 -8 -8 -8 -8 -7 -8 -9 -9 -9 -8 -8 -9 -10 -9 -9 -9 -9 -8 -7 -7 -7 -8 -7 -8 -9 -13 -16 -17 -17 -17 -12 -10 -9 -10 -16 -22 -23 -23 -23 -23 -23 -24 -23 -23 -23 -22 -22 -22 -21 -20 -19
-9 -9 -9 -10 -9 -8 -9 -9 -9 -9 -8 -8 -10 -10 -10 -11 -10 -10 -9 -9 -9 -9 -9 -8 -9 -11 -14 -16 -19 -20 -20 -21 -21 -18 -13 -14 -21 -24 -24 -24 -24 -23 -23 -23 -23 -23 -23 -21 -18 -15 -14 -13 -12 -12
-9 -8 -9 -10 -10 -10 -9 -9 -9 -9 -8 -8 -9 -10 -10 -11 -11 -10 -10 -10 -9 -9 -9 -9 -11 -14 -16 -16 -18 -21 -22 -23 -24 -25 -25 -24 -24 -23 -23 -23 -23 -23 -23 -22 -22 -21 -20 -18 -16 -15 -15 -13 -13 -13
-8 -9 -10 -10 -10 -10 -9 -8 -9 -9 -9 -10 -10 -9 -10 -10 -10 -11 -11 -11 -10 -10 -11 -14 -16 -17 -18 -19 -21 -22 -24 -24 -24 -24 -25 -25 -24 -24 -23 -23 -22 -22 -21 -20 -19 -18 -17 -16 -15 -15 -14 -14 -14 -14
-9 -9 -10 -10 -10 -9 -9 -9 -10 -10 -10 -10 -10 -10 -9 -10 -11 -12 -11 -11 -11 -11 -12 -16 -17 -18 -19 -21 -23 -23 -23 -24 -24 -24 -24 -23 -22 -22 -21 -21 -20 -20 -18 -18 -17 -17 -16 -16 -15 -14 -14 -14 -14 -14

GFSWCAN_850_dewp_264.txt.gz
Dewpoint
-6 -7 -6 -5 -5 -4 -5 -5 -7 -6 -6 -7 -9 -7 -8 -6 -7 -5 -4 -5 -3 -1 -1 -3 -5 -5 -5 -5 0 -3 -2 -2 -1 2 3 2 2 -2 -4 -6 -4 -2 0 1 1 2 1 -8 -10 -6 -7 -7 -8 -9
-8 -7 -6 -5 -5 -4 -6 -3 -5 -6 -5 -6 -10 -7 -8 -7 -6 -6 -4 -6 -4 -4 -0 -3 -5 -4 -5 -5 -4 -3 -3 -3 -2 2 1 2 2 1 -3 -1 -6 -3 -2 1 -1 -1 -6 -9 -9 -9 -5 -7 -8 -9
-8 -7 -6 -5 -5 -4 -5 -6 -6 -6 -5 -5 -8 -10 -7 -6 -7 -7 -5 -5 -4 -4 -2 -0 -3 -5 -4 -3 -3 -1 -3 -4 -4 -3 -1 2 0 -3 -0 -3 -3 -6 -7 -2 -2 -5 -6 -8 -9 -8 -7 -7 -9 -8
-7 -6 -6 -5 -5 -4 -4 -7 -6 -3 -5 -4 -7 -9 -7 -7 -8 -7 -5 -6 -5 -4 -1 -1 -3 -4 -3 -2 -2 1 -2 -4 -5 -4 1 4 3 -4 -1 -5 -4 -5 -6 -4 -4 -6 -8 -7 -9 -9 -8 -9 -10 -8
-6 -6 -5 -4 -4 -4 -4 -6 -7 -6 -4 -4 -8 -7 -7 -8 -9 -8 -6 -7 -4 -4 -1 -2 -3 -3 -5 -4 -2 -0 -1 -2 -3 -1 3 3 -1 -1 -2 -3 -3 -7 -5 -3 -1 -6 -6 -8 -8 -10 -9 -8 -9 -8
-6 -6 -5 -4 -4 -3 -4 -6 -7 -7 -5 -5 -8 -7 -7 -9 -8 -5 -4 -6 -5 -4 -4 1 -3 -4 -3 -2 -2 -1 -1 -1 -2 -1 1 -2 -5 -2 3 -2 -6 -7 -8 -8 -7 -7 -7 -8 -8 -8 -9 -8 -8 -7
-6 -5 -5 -4 -4 -3 -4 -6 -6 -4 -4 -6 -12 -7 -8 -8 -6 -5 -5 -4 -7 -5 -4 0 1 -3 -3 -3 -3 -3 -2 -2 -2 -1 -0 -2 -5 -3 1 -0 -9 -9 -9 -9 -8 -7 -8 -9 -7 -7 -8 -9 -8 -7
-5 -5 -4 -3 -3 -4 -4 -6 -5 -5 -5 -9 -10 -8 -9 -7 -6 -4 -9 -3 -4 -4 -3 1 1 -1 -3 -2 -2 -4 -3 -3 -2 -0 -0 -1 -3 -2 1 -4 -5 -8 -10 -9 -9 -9 -9 -8 -8 -8 -8 -9 -7 -6
-4 -4 -4 -4 -3 -4 -7 -8 -4 -6 -9 -11 -8 -8 -6 -5 -5 -7 -11 -6 -5 -4 -2 -0 -1 1 -3 -3 -1 -1 -1 2 -2 1 -0 -1 0 1 -1 -4 -6 -6 -7 -9 -10 -9 -9 -9 -7 -8 -7 -8 -4 -4
-7 -5 -4 -3 -4 -5 -8 -5 -7 -10 -11 -7 -6 -5 -5 -6 -8 -6 -5 -4 -4 -4 -4 -0 -5 -0 -1 -2 -1 -1 -2 -1 -0 -2 -3 0 -1 -4 -5 -6 -6 -6 -7 -8 -9 -9 -9 -8 -8 -9 -7 -7 -4 -6
-5 -5 -5 -3 -5 -7 -6 -6 -7 -10 -7 -6 -6 -6 -6 -6 -7 -5 -3 -3 -2 -1 -1 -2 -4 -1 -3 -2 -1 -3 -1 -3 -0 -3 -3 -4 -4 -4 -5 -5 -6 -8 -8 -9 -9 -9 -8 -8 -9 -8 -6 -5 -5 -9
-4 -4 -3 -4 -7 -7 -6 -7 -8 -9 -7 -8 -8 -6 -5 -4 -4 -4 -4 -2 -1 -1 -1 -3 -3 -3 -4 -5 -4 -4 -4 -5 -5 -4 -2 -5 -4 -8 -7 -6 -6 -6 -8 -9 -9 -9 -8 -8 -8 -7 -5 -5 -7 -7
-5 -4 -5 -9 -8 -6 -6 -9 -12 -9 -7 -6 -6 -6 -6 -4 -3 -3 -3 -2 0 -1 -4 -4 -2 -4 -4 -2 -4 -4 -4 -3 -4 0 -2 -6 -8 -9 -9 -8 -7 -7 -8 -8 -9 -9 -8 -8 -7 -5 -4 -4 -6 -6
-6 -8 -8 -7 -6 -6 -8 -10 -9 -6 -5 -6 -5 -4 -6 -3 -4 -2 -3 -2 -4 -4 -4 -4 -3 -4 -4 -2 -2 -3 -4 -4 -2 -2 -5 -4 -9 -9 -8 -8 -8 -7 -7 -8 -8 -7 -7 -7 -6 -5 -4 -4 -5 -5
-9 -7 -7 -7 -7 -7 -8 -8 -8 -7 -6 -6 -7 -6 -5 -4 -5 -4 -3 -5 -5 -5 -4 -4 -4 -6 -2 -2 -4 -4 -2 -1 -5 -5 -3 -6 -6 -5 -6 -5 -6 -7 -7 -7 -7 -6 -5 -5 -6 -4 -4 -4 -6 -12
-8 -7 -5 -7 -6 -6 -7 -7 -6 -5 -7 -6 -5 -3 -3 -2 -2 -3 -5 -5 -4 -4 -5 -6 -3 -2 -2 -4 -4 -3 -5 -6 -6 -3 -4 -6 -4 -4 -4 -3 -6 -6 -7 -4 -4 -4 -4 -4 -4 -4 -5 -8 -13 -17
-8 -5 -7 -5 -7 -6 -5 -5 -5 -7 -6 -7 -3 -4 -2 -4 -2 -5 -5 -4 -4 -5 -2 -4 -2 -4 -5 -4 -6 -6 -6 -5 -2 -2 -1 -2 -2 -2 -2 -2 -5 -5 -2 -1 -3 -4 -4 -4 -4 -6 -11 -15 -18 -21
-5 -9 -6 -5 -5 -5 -5 -6 -7 -6 -6 -4 -1 -1 -2 -3 -3 -4 -4 -4 -4 -5 -6 -5 -8 -6 -4 -6 -6 -5 -6 -3 -1 -1 -2 -2 -2 -2 -2 -1 -4 -2 -1 -1 -2 -3 -5 -9 -11 -11 -12 -19 -23 -22
-9 -6 -6 -5 -6 -7 -7 -8 -6 -3 -2 -1 -3 -3 -3 -4 -4 -4 -4 -5 -5 -7 -7 -6 -5 -5 -6 -6 -5 -6 -3 -0 -0 -1 -1 -1 -2 -2 -2 -2 -2 -3 -4 -4 -4 -6 -7 -7 -7 -9 -9 -13 -8 -8
-9 -9 -7 -6 -7 -6 -6 -5 -4 -2 -2 -3 -4 -4 -4 -4 -5 -4 -3 -3 -4 -2 -2 -4 -4 -4 -6 -6 -4 -3 -1 -0 -2 -2 -2 -2 -2 -2 -3 -3 -4 -4 -5 -6 -7 -8 -8 -9 -10 -10 -10 -9 -9 -8
-4 -4 -5 -6 -4 -3 -3 -4 -5 -2 -3 -2 -5 -4 -3 -2 -1 -1 -1 -1 -2 -1 -0 -1 -2 -1 -1 -1 -1 -1 -1 -1 -2 -2 -2 -2 -3 -4 -5 -5 -6 -7 -8 -9 -9 -10 -10 -10 -10 -14 -19 -20 -25 -27
-6 -6 -5 -4 -3 -5 -4 -5 -5 -4 -4 -3 -5 -5 -4 -2 -3 -2 -2 -3 -3 -2 -2 -2 -2 -1 -1 -1 -1 -1 -1 -2 -2 -2 -2 -3 -3 -5 -6 -6 -7 -8 -8 -10 -11 -9 -9 -10 -10 -12 -22 -25 -25 -24
-4 -3 -4 -5 -4 -5 -4 -5 -6 -7 -5 -5 -7 -5 -4 -4 -3 -3 -3 -3 -3 -3 -2 -2 -2 -2 -2 -1 -1 -2 -2 -2 -2 -3 -3 -4 -5 -5 -6 -6 -7 -9 -9 -9 -10 -10 -11 -16 -19 -23 -23 -23 -23 -23
-5 -6 -6 -6 -5 -4 -6 -5 -7 -6 -6 -7 -7 -4 -5 -4 -3 -4 -4 -4 -4 -3 -3 -3 -3 -3 -3 -3 -3 -3 -3 -3 -3 -4 -4 -5 -5 -6 -7 -8 -9 -11 -13 -12 -11 -11 -17 -20 -21 -21 -22 -24 -23 -23
-7 -7 -5 -5 -7 -5 -5 -5 -6 -7 -4 -7 -6 -5 -5 -6 -4 -4 -3 -4 -3 -3 -3 -3 -3 -3 -3 -4 -4 -4 -4 -4 -5 -5 -5 -7 -9 -10 -10 -11 -11 -11 -12 -14 -17 -18 -21 -22 -23 -23 -22 -22 -22 -22
-6 -7 -7 -6 -6 -6 -6 -4 -6 -6 -6 -6 -7 -8 -8 -5 -3 -3 -4 -4 -4 -3 -3 -4 -4 -4 -4 -4 -5 -5 -5 -6 -8 -9 -9 -9 -10 -12 -12 -13 -14 -13 -12 -18 -22 -23 -22 -22 -22 -22 -22 -23 -23 -22
-7 -7 -8 -8 -8 -8 -7 -8 -9 -7 -7 -7 -7 -7 -7 -6 -5 -6 -6 -6 -5 -4 -4 -5 -5 -6 -7 -7 -8 -8 -8 -8 -9 -9 -9 -9 -8 -8 -9 -9 -9 -14 -21 -22 -23 -23 -23 -23 -23 -23 -23 -24 -24 -22
-9 -8 -6 -7 -7 -8 -6 -7 -7 -6 -7 -9 -9 -7 -6 -5 -6 -7 -7 -7 -5 -5 -5 -6 -6 -7 -8 -8 -9 -9 -10 -13 -15 -16 -17 -18 -20 -21 -21 -21 -22 -22 -23 -24 -25 -25 -24 -24 -24 -24 -24 -23 -25 -24
-7 -7 -7 -7 -8 -8 -7 -5 -6 -8 -7 -6 -7 -8 -9 -8 -8 -8 -8 -7 -7 -6 -6 -7 -8 -10 -11 -13 -14 -14 -15 -17 -19 -14 -18 -15 -18 -23 -25 -26 -26 -26 -26 -25 -25 -25 -25 -24 -24 -24 -23 -23 -22 -22
-8 -8 -9 -9 -8 -8 -9 -7 -8 -7 -7 -8 -9 -10 -10 -10 -9 -9 -8 -8 -8 -8 -8 -8 -8 -10 -11 -12 -15 -15 -15 -13 -12 -12 -12 -14 -21 -25 -25 -26 -26 -26 -26 -26 -26 -26 -25 -22 -21 -19 -16 -15 -14 -13
-7 -8 -9 -10 -9 -9 -8 -8 -7 -7 -8 -9 -9 -10 -10 -10 -10 -9 -9 -8 -8 -8 -8 -8 -9 -12 -17 -19 -21 -21 -22 -23 -24 -25 -26 -26 -25 -26 -26 -26 -26 -25 -25 -24 -24 -23 -21 -20 -19 -19 -18 -17 -16 -13
-7 -9 -10 -10 -9 -8 -7 -8 -8 -8 -9 -9 -9 -9 -8 -9 -10 -10 -9 -9 -9 -9 -9 -9 -11 -12 -16 -18 -19 -21 -24 -25 -25 -26 -26 -26 -26 -26 -25 -24 -24 -24 -23 -22 -22 -21 -20 -18 -18 -17 -15 -14 -14 -14
-8 -9 -10 -9 -9 -9 -8 -9 -10 -8 -8 -8 -8 -8 -8 -9 -10 -11 -10 -10 -10 -10 -11 -16 -18 -19 -20 -22 -23 -24 -25 -25 -25 -26 -26 -25 -25 -24 -24 -23 -22 -22 -22 -21 -19 -18 -17 -16 -16 -15 -15 -14 -14 -14

GFSWCAN_850_dewp_270.txt.gz
Dewpoint
-6 -6 -6 -6 -6 -7 -7 -7 -7 -7 -6 -4 -4 -4 -5 -6 -8 -5 -4 -5 -4 -4 -6 -6 -3 -1 -3 -4 -1 -3 -2 -2 -2 -2 -1 -1 -1 -2 -3 -3 -2 -0 -2 -2 -2 -4 -1 -6 -7 -6 -7 -8 -8 -9
-7 -7 -6 -7 -6 -6 -8 -8 -9 -9 -8 -6 -5 -5 -5 -6 -6 -6 -5 -5 -5 -4 -5 -7 -6 -6 -5 -2 -0 -1 -2 -3 -3 -1 -2 -1 0 -2 -3 -1 -4 -1 -3 -1 -1 -1 -5 -5 -7 -9 -8 -9 -8 -9
-7 -6 -6 -7 -7 -7 -7 -7 -7 -8 -8 -6 -6 -5 -6 -6 -5 -7 -6 -5 -5 -4 -5 -7 -9 -9 -8 -3 -1 -0 -0 -2 -2 -5 -2 -1 -1 -1 -0 -1 -3 -4 -4 -3 -2 -5 -3 -4 -5 -7 -8 -9 -9 -10
-7 -7 -7 -6 -7 -7 -7 -7 -7 -7 -7 -6 -5 -5 -6 -6 -5 -5 -6 -7 -5 -5 -4 -6 -5 -9 -10 -9 -4 -1 -2 -1 -1 -4 -4 -2 -0 -2 -2 -4 -3 -4 -3 -2 -3 -4 -4 -6 -5 -7 -9 -9 -10 -9
-8 -8 -9 -8 -9 -9 -8 -7 -7 -7 -6 -6 -6 -4 -5 -5 -5 -4 -5 -6 -6 -5 -4 -5 -9 -8 -6 -8 -4 -3 -2 -1 -1 -2 -1 -1 -0 -1 -2 -2 -2 -4 -4 -2 -2 -5 -4 -6 -7 -6 -7 -8 -9 -9
-7 -7 -7 -7 -8 -7 -8 -7 -6 -6 -6 -6 -5 -5 -5 -3 -4 -4 -4 -5 -7 -6 -5 -7 -7 -7 -7 -4 -3 -1 -2 -2 1 1 -1 -1 -2 -2 -2 -2 -4 -5 -7 -7 -6 -7 -7 -7 -7 -7 -8 -7 -8 -9
-6 -6 -6 -6 -6 -6 -7 -7 -6 -5 -6 -5 -5 -4 -4 -4 -4 -5 -8 -11 -10 -6 -5 -6 -6 -10 -9 -3 -2 -1 -2 -0 2 2 1 -1 -2 -2 -3 -0 -3 -5 -5 -6 -7 -7 -6 -6 -7 -7 -8 -7 -9 -9
-6 -6 -5 -5 -6 -6 -6 -6 -5 -5 -5 -5 -4 -4 -5 -4 -4 -5 -7 -8 -10 -5 -7 -5 -6 -2 -3 -1 -1 -0 -1 -0 2 1 1 -1 -2 -2 -1 -3 -4 -6 -6 -6 -7 -6 -7 -7 -6 -7 -8 -8 -9 -9
-6 -5 -5 -6 -6 -6 -6 -5 -5 -5 -5 -4 -4 -5 -5 -3 -5 -5 -6 -4 -5 -6 -5 -5 -6 -6 -2 -1 -1 0 -2 1 1 1 1 0 -0 0 -2 -3 -4 -5 -7 -7 -7 -8 -6 -7 -8 -7 -7 -8 -8 -9
-4 -4 -5 -6 -5 -5 -5 -6 -6 -5 -4 -3 -4 -4 -5 -5 -6 -6 -7 -7 -6 -5 -5 -7 -7 -5 -1 -1 -1 -1 -1 -0 1 0 1 1 0 -2 -4 -5 -5 -6 -6 -8 -7 -5 -7 -7 -8 -8 -8 -8 -8 -8
-5 -5 -5 -4 -6 -5 -5 -5 -5 -4 -4 -4 -5 -6 -6 -7 -6 -7 -6 -6 -5 -5 -5 -6 -8 -6 -5 -1 -0 -2 -1 -1 0 -0 1 -0 -1 -3 -3 -5 -5 -5 -6 -7 -8 -8 -7 -8 -8 -8 -8 -8 -8 -8
-4 -4 -5 -4 -5 -7 -5 -5 -4 -4 -4 -5 -7 -6 -6 -7 -6 -5 -7 -5 -7 -7 -5 -6 -7 -8 -5 -3 -1 -1 -0 -1 -2 -2 -2 -1 -4 -7 -6 -6 -6 -6 -7 -7 -7 -6 -6 -6 -7 -9 -8 -8 -8 -8
-5 -4 -5 -4 -5 -6 -5 -4 -3 -4 -6 -8 -9 -6 -6 -7 -7 -7 -7 -7 -7 -6 -5 -6 -3 -5 -4 -1 -1 -1 -0 -0 -3 -4 -2 -3 -7 -9 -9 -9 -8 -7 -7 -7 -7 -8 -8 -7 -7 -8 -8 -8 -7 -6
-4 -4 -3 -4 -6 -5 -4 -3 -4 -6 -8 -7 -7 -6 -7 -6 -7 -8 -11 -12 -11 -11 -7 -6 -4 -1 -2 -1 -1 -2 -3 -2 -1 -2 -2 -4 -8 -10 -10 -9 -9 -10 -10 -6 -5 -6 -6 -8 -8 -8 -9 -8 -6 -5
-5 -5 -6 -6 -5 -3 -3 -4 -6 -9 -12 -10 -8 -8 -6 -9 -8 -9 -11 -15 -16 -15 -11 -5 -5 -2 -1 -1 -2 -2 -1 -0 -2 -5 -4 -7 -10 -11 -11 -11 -11 -8 -6 -7 -6 -5 -5 -7 -7 -8 -8 -7 -6 -5
-4 -4 -4 -4 -3 -3 -4 -6 -8 -11 -9 -10 -8 -7 -7 -7 -8 -8 -8 -12 -15 -15 -15 -9 -2 -1 -0 -0 -1 -3 -2 -2 -4 -4 -10 -11 -10 -10 -11 -12 -11 -10 -9 -8 -7 -6 -5 -7 -8 -8 -7 -6 -5 -6
-4 -5 -4 -5 -5 -6 -6 -7 -11 -12 -11 -7 -8 -7 -7 -7 -7 -6 -9 -11 -10 -10 -8 -4 -1 -0 -0 -0 -2 -3 -3 -4 -8 -10 -11 -11 -11 -11 -11 -11 -10 -7 -7 -7 -6 -5 -6 -7 -7 -7 -5 -5 -6 -6
-4 -4 -5 -6 -7 -8 -9 -11 -8 -9 -6 -7 -6 -9 -7 -8 -9 -9 -7 -7 -7 -6 -7 -5 -4 -1 -0 -3 -3 -4 -4 -6 -9 -8 -11 -12 -11 -8 -6 -6 -6 -7 -7 -6 -5 -6 -7 -7 -6 -5 -5 -6 -6 -7
-5 -5 -7 -8 -11 -10 -10 -11 -9 -5 -6 -7 -7 -8 -7 -7 -8 -9 -8 -11 -11 -5 -6 -5 -2 -2 -3 -4 -6 -6 -2 -4 -2 -2 -2 -3 -4 -5 -5 -5 -5 -5 -5 -5 -6 -6 -6 -5 -5 -4 -5 -6 -6 -10
-7 -7 -9 -9 -10 -7 -7 -6 -7 -8 -5 -5 -4 -4 -5 -7 -8 -9 -9 -6 -2 -3 -3 -0 -1 -1 -3 -2 -7 -10 -5 -3 -3 -1 -1 -1 -2 -2 -2 -3 -4 -4 -4 -4 -5 -5 -5 -4 -5 -6 -7 -9 -10 -13
-6 -7 -8 -9 -7 -5 -5 -5 -5 -6 -6 -7 -6 -3 -4 -4 -3 -1 -1 -1 -1 -1 -2 -1 -1 -1 -1 -2 -6 -7 -3 -2 -4 -4 -1 -1 -1 -1 -2 -3 -4 -4 -4 -4 -4 -5 -6 -7 -10 -14 -15 -15 -13 -15
-5 -5 -5 -6 -5 -5 -5 -7 -3 -4 -4 -3 -4 -3 -3 -3 -3 -3 -3 -3 -3 -2 -2 -1 -1 -1 -1 -1 -1 -2 -2 -2 -2 -2 -1 -2 -2 -2 -3 -3 -4 -4 -5 -6 -6 -8 -9 -10 -12 -11 -11 -11 -12 -16
-5 -5 -5 -5 -6 -4 -4 -5 -5 -6 -4 -4 -5 -4 -3 -3 -3 -3 -3 -3 -3 -2 -2 -2 -1 -2 -2 -1 -1 -1 -2 -2 -2 -2 -3 -3 -2 -2 -2 -2 -3 -5 -6 -7 -8 -8 -9 -9 -10 -13 -16 -20 -24 -25
-6 -5 -5 -4 -4 -5 -6 -6 -7 -6 -7 -5 -5 -4 -4 -4 -5 -5 -4 -4 -3 -3 -2 -3 -2 -2 -2 -2 -2 -2 -2 -2 -3 -3 -3 -3 -3 -4 -3 -4 -5 -5 -6 -6 -6 -7 -11 -15 -18 -23 -24 -24 -23 -24
-5 -5 -5 -4 -4 -7 -7 -7 -7 -6 -7 -6 -6 -6 -6 -6 -6 -5 -4 -4 -3 -3 -3 -3 -3 -2 -3 -3 -3 -3 -3 -3 -4 -5 -5 -5 -6 -7 -7 -8 -8 -8 -8 -9 -11 -14 -16 -17 -18 -22 -23 -24 -24 -25
-5 -7 -6 -7 -7 -7 -6 -8 -8 -8 -8 -9 -7 -6 -6 -8 -10 -7 -7 -6 -4 -3 -3 -3 -3 -3 -4 -3 -4 -4 -5 -5 -4 -6 -7 -7 -7 -7 -7 -8 -9 -8 -7 -8 -7 -10 -15 -21 -23 -24 -24 -25 -27 -28
-7 -9 -7 -7 -6 -6 -7 -7 -7 -9 -11 -10 -9 -10 -10 -9 -9 -8 -7 -6 -5 -4 -4 -4 -4 -4 -6 -5 -5 -6 -6 -6 -5 -6 -6 -5 -5 -6 -6 -6 -7 -8 -10 -14 -19 -22 -23 -24 -26 -27 -27 -27 -27 -27
-7 -5 -7 -7 -8 -7 -12 -11 -12 -10 -9 -6 -9 -11 -11 -10 -10 -7 -7 -6 -5 -4 -4 -5 -5 -5 -6 -6 -6 -6 -5 -5 -6 -6 -6 -8 -9 -9 -10 -12 -15 -19 -22 -24 -26 -27 -28 -29 -28 -28 -28 -29 -29 -29
-5 -7 -9 -11 -10 -10 -9 -10 -9 -6 -7 -7 -13 -13 -11 -8 -8 -7 -7 -7 -6 -5 -5 -6 -6 -6 -6 -6 -6 -6 -6 -7 -8 -11 -10 -10 -11 -15 -21 -24 -26 -28 -29 -29 -29 -29 -30 -30 -31 -31 -31 -31 -30 -30
-6 -9 -11 -13 -14 -12 -8 -7 -7 -9 -9 -10 -10 -9 -9 -8 -8 -7 -7 -7 -6 -6 -6 -6 -6 -6 -7 -7 -7 -7 -8 -9 -11 -15 -14 -17 -23 -26 -27 -28 -28 -29 -30 -31 -32 -31 -30 -29 -28 -27 -26 -25 -24 -23
-9 -11 -10 -10 -11 -8 -9 -9 -10 -10 -10 -10 -10 -10 -9 -9 -8 -8 -8 -7 -7 -7 -6 -7 -7 -7 -7 -8 -9 -11 -15 -17 -20 -23 -26 -27 -27 -27 -29 -30 -31 -30 -30 -29 -29 -29 -28 -27 -25 -24 -23 -23 -22 -21
-8 -10 -12 -12 -9 -8 -10 -10 -10 -10 -9 -9 -9 -10 -10 -11 -10 -9 -8 -8 -8 -8 -7 -7 -8 -9 -11 -14 -15 -16 -19 -23 -26 -26 -26 -27 -29 -30 -30 -29 -29 -28 -28 -27 -26 -26 -25 -24 -22 -21 -20 -20 -19 -18
-10 -10 -9 -8 -9 -9 -8 -10 -10 -9 -9 -9 -9 -10 -11 -11 -11 -10 -9 -9 -8 -8 -8 -8 -9 -9 -9 -12 -17 -22 -26 -26 -26 -27 -27 -28 -29 -28 -28 -27 -26 -26 -26 -25 -24 -23 -22 -20 -19 -18 -17 -17 -16 -15

GFSWCAN_850_dewp_276.txt.gz
Dewpoint
-9 -8 -8 -8 -8 -9 -8 -7 -6 -6 -7 -8 -8 -8 -7 -5 -5 -4 -6 -7 -5 -5 -6 -7 -4 -3 -3 -2 -1 -2 -2 -2 -2 -2 -2 -3 -2 -1 -2 -2 -1 -1 -3 -4 -4 -7 -7 -9 -9 -6 -6 -9 -7 -10
-9 -9 -8 -8 -8 -8 -8 -7 -7 -6 -8 -8 -8 -7 -8 -7 -5 -4 -5 -7 -6 -5 -6 -6 -7 -6 -7 -5 -4 -2 -0 -1 -3 -1 -3 -3 -1 -3 -2 0 -3 -0 -3 -1 -3 -3 -7 -7 -7 -9 -6 -8 -8 -9
-8 -8 -8 -8 -8 -8 -7 -7 -7 -8 -8 -8 -8 -8 -6 -7 -6 -4 -4 -6 -5 -5 -6 -7 -12 -11 -11 -8 -8 -3 -2 1 -0 0 -2 -2 -2 -4 -2 -3 -2 -3 -4 -2 -3 -5 -4 -6 -7 -7 -8 -8 -9 -9
-7 -8 -8 -8 -8 -8 -8 -8 -7 -7 -7 -7 -7 -8 -8 -7 -7 -4 -4 -4 -6 -6 -6 -8 -10 -12 -12 -12 -11 -9 -5 -2 -2 -1 -0 -2 -2 -4 -3 -4 -3 -3 -4 -3 -3 -5 -6 -7 -7 -9 -8 -7 -8 -9
-8 -7 -7 -7 -7 -7 -7 -8 -8 -7 -6 -6 -7 -7 -8 -8 -7 -5 -3 -4 -5 -8 -9 -8 -11 -16 -13 -8 -9 -8 -9 -7 -4 -1 0 -2 -2 -2 -3 -4 -4 -4 -3 -2 -2 -6 -7 -8 -11 -10 -8 -7 -8 -10
-7 -7 -7 -7 -7 -7 -6 -6 -6 -7 -6 -7 -6 -5 -6 -7 -6 -4 -5 -4 -4 -6 -8 -10 -12 -15 -19 -14 -12 -11 -8 -4 -4 -1 0 1 -1 -1 -1 -2 -6 -7 -8 -8 -7 -9 -9 -11 -10 -8 -8 -7 -8 -9
-6 -6 -6 -6 -6 -6 -6 -6 -7 -7 -6 -6 -6 -6 -6 -6 -4 -3 -4 -5 -5 -5 -6 -8 -9 -13 -15 -16 -16 -11 -6 -3 -3 -2 -1 -0 -1 -0 -0 -0 -5 -7 -8 -8 -9 -9 -7 -8 -8 -8 -8 -8 -8 -9
-6 -5 -5 -5 -5 -5 -6 -6 -6 -6 -6 -6 -5 -7 -6 -6 -4 -3 -5 -7 -5 -5 -6 -8 -9 -10 -11 -7 -8 -12 -7 -4 -3 -3 -1 0 -0 -0 1 -1 -3 -6 -7 -7 -7 -8 -8 -8 -8 -7 -7 -7 -8 -8
-6 -7 -7 -6 -6 -5 -5 -5 -6 -5 -6 -6 -6 -7 -5 -4 -3 -4 -4 -6 -5 -6 -6 -6 -8 -11 -12 -4 -5 -4 -4 -1 -3 -1 -0 0 0 1 -1 -2 -4 -5 -6 -6 -6 -6 -6 -6 -6 -6 -7 -6 -7 -8
-10 -9 -9 -10 -10 -7 -5 -5 -5 -5 -5 -5 -5 -4 -4 -4 -4 -4 -5 -5 -5 -6 -7 -9 -8 -9 -12 -6 -5 -4 -2 -2 -1 -1 0 0 -1 -3 -3 -5 -5 -4 -5 -6 -6 -5 -5 -5 -6 -6 -6 -7 -7 -7
-7 -6 -5 -6 -8 -9 -8 -6 -5 -5 -5 -5 -5 -4 -5 -4 -4 -5 -5 -6 -6 -7 -6 -6 -8 -9 -12 -10 -9 -11 -2 -3 -2 -3 -1 -1 -2 -3 -2 -2 -3 -4 -5 -5 -5 -6 -7 -8 -8 -8 -6 -6 -6 -6
-6 -4 -4 -4 -4 -4 -7 -6 -5 -5 -4 -4 -5 -5 -4 -6 -6 -6 -6 -7 -7 -9 -7 -6 -8 -9 -11 -10 -7 -6 -5 -1 -2 -1 -1 -2 -5 -5 -5 -4 -6 -4 -4 -5 -5 -5 -6 -7 -6 -7 -8 -7 -7 -7
-4 -5 -5 -6 -4 -4 -4 -5 -4 -4 -4 -4 -5 -5 -6 -6 -6 -8 -8 -7 -7 -7 -6 -6 -7 -9 -9 -6 -7 -5 -4 -3 -2 -1 -1 -4 -7 -5 -5 -4 -5 -6 -4 -5 -5 -6 -6 -6 -6 -6 -8 -8 -7 -7
-5 -5 -4 -4 -4 -4 -4 -4 -4 -4 -5 -5 -6 -6 -7 -8 -9 -8 -9 -8 -9 -10 -8 -8 -7 -8 -10 -7 -7 -5 -7 -4 -1 -3 -3 -4 -6 -8 -7 -5 -5 -6 -5 -5 -6 -6 -7 -6 -7 -8 -9 -8 -8 -7
-4 -4 -4 -4 -4 -4 -4 -4 -4 -5 -6 -6 -7 -8 -6 -9 -9 -10 -11 -11 -12 -14 -9 -8 -7 -8 -6 -6 -6 -7 -5 -5 -2 -3 -7 -9 -8 -8 -8 -7 -7 -8 -8 -5 -5 -6 -6 -7 -8 -8 -8 -8 -7 -8
-5 -3 -4 -4 -4 -4 -4 -4 -5 -6 -6 -8 -9 -7 -7 -8 -9 -9 -12 -13 -11 -8 -9 -9 -8 -8 -10 -8 -6 -7 -7 -9 -2 -4 -7 -9 -11 -10 -10 -9 -9 -10 -8 -5 -4 -4 -5 -6 -6 -6 -7 -6 -6 -6
-6 -4 -4 -4 -4 -5 -5 -5 -6 -7 -7 -8 -8 -8 -10 -10 -8 -10 -12 -14 -14 -9 -9 -8 -8 -9 -6 -6 -9 -8 -7 -4 -6 -6 -7 -10 -11 -11 -11 -11 -10 -9 -8 -7 -6 -7 -8 -9 -9 -7 -6 -6 -7 -7
-6 -5 -4 -4 -5 -5 -5 -7 -9 -9 -8 -8 -7 -7 -10 -12 -10 -10 -12 -14 -13 -13 -13 -9 -10 -6 -7 -7 -6 -4 -6 -9 -9 -6 -7 -8 -9 -10 -10 -11 -11 -10 -9 -9 -9 -10 -10 -9 -7 -7 -5 -6 -6 -7
-5 -6 -6 -5 -6 -8 -7 -10 -11 -7 -8 -9 -10 -10 -8 -9 -12 -15 -14 -13 -12 -14 -14 -11 -8 -7 -13 -12 -13 -15 -14 -11 -8 -4 -4 -9 -8 -8 -9 -10 -9 -9 -9 -10 -10 -9 -8 -6 -6 -6 -5 -5 -5 -6
-8 -7 -7 -9 -11 -10 -9 -9 -12 -10 -7 -9 -9 -10 -11 -12 -15 -12 -11 -9 -8 -7 -6 -5 -6 -8 -8 -10 -13 -14 -15 -7 -3 -3 -2 -4 -5 -6 -7 -7 -8 -7 -6 -6 -5 -5 -5 -5 -5 -5 -4 -5 -5 -5
-11 -13 -14 -14 -13 -11 -7 -6 -7 -7 -7 -6 -7 -7 -7 -8 -9 -8 -8 -9 -6 -5 -6 -10 -11 -11 -11 -10 -9 -10 -10 -4 -2 -4 -3 -3 -3 -4 -4 -4 -4 -4 -4 -4 -4 -4 -4 -4 -4 -4 -4 -5 -5 -5
-9 -10 -10 -10 -11 -9 -7 -6 -5 -5 -5 -5 -5 -5 -5 -5 -5 -6 -8 -6 -6 -8 -9 -10 -10 -10 -11 -8 -8 -6 -4 -2 -2 -3 -2 -3 -3 -3 -3 -3 -3 -4 -4 -4 -4 -4 -4 -4 -5 -5 -5 -5 -7 -10
-8 -7 -7 -6 -7 -6 -6 -5 -5 -5 -4 -3 -3 -3 -3 -3 -4 -5 -5 -6 -7 -8 -8 -7 -6 -5 -5 -3 -2 -2 -2 -2 -2 -2 -2 -3 -3 -3 -3 -4 -4 -4 -5 -5 -5 -5 -5 -5 -6 -6 -9 -12 -13 -12
-6 -6 -5 -5 -5 -6 -4 -5 -6 -5 -5 -3 -3 -3 -3 -3 -4 -4 -3 -5 -4 -3 -3 -3 -2 -3 -3 -3 -3 -4 -3 -2 -2 -3 -3 -3 -3 -4 -4 -5 -5 -5 -5 -5 -5 -6 -9 -11 -13 -13 -12 -8 -5 -7
-5 -7 -5 -8 -5 -6 -8 -8 -9 -8 -7 -6 -6 -4 -4 -4 -5 -5 -5 -6 -5 -3 -3 -3 -3 -3 -3 -3 -4 -3 -3 -3 -3 -3 -4 -4 -4 -5 -5 -6 -6 -7 -9 -12 -13 -13 -9 -6 -5 -4 -5 -11 -20 -22
-8 -6 -7 -8 -8 -6 -7 -9 -9 -8 -10 -9 -8 -8 -8 -8 -7 -7 -7 -8 -7 -5 -3 -4 -4 -4 -4 -4 -4 -4 -4 -4 -4 -5 -5 -5 -5 -5 -6 -6 -6 -6 -6 -6 -5 -6 -9 -13 -16 -21 -22 -23 -21 -19
-9 -11 -7 -6 -6 -6 -10 -9 -9 -10 -10 -9 -10 -12 -12 -10 -10 -10 -8 -7 -6 -5 -4 -4 -4 -5 -5 -5 -5 -5 -5 -5 -5 -6 -6 -6 -5 -5 -5 -6 -8 -9 -9 -9 -10 -11 -12 -12 -10 -8 -8 -12 -21 -26
-8 -7 -9 -9 -9 -9 -14 -12 -8 -8 -8 -8 -12 -12 -14 -13 -12 -8 -8 -8 -7 -6 -5 -5 -4 -4 -5 -5 -6 -6 -6 -6 -6 -6 -6 -6 -6 -7 -7 -7 -7 -7 -7 -8 -9 -12 -16 -20 -24 -27 -29 -30 -30 -31
-6 -8 -10 -15 -12 -11 -10 -11 -9 -8 -9 -10 -16 -15 -12 -9 -9 -8 -8 -7 -7 -6 -6 -6 -6 -6 -6 -6 -6 -6 -6 -6 -6 -7 -7 -8 -8 -8 -8 -10 -13 -16 -21 -25 -27 -29 -29 -30 -30 -31 -32 -32 -33 -34
-7 -9 -12 -15 -15 -13 -10 -9 -9 -9 -10 -10 -10 -10 -9 -9 -8 -8 -7 -7 -7 -6 -7 -7 -7 -7 -7 -7 -7 -6 -6 -6 -7 -8 -9 -12 -16 -21 -24 -26 -28 -28 -29 -31 -32 -33 -33 -34 -34 -34 -34 -33 -33 -32
-10 -11 -10 -11 -13 -10 -10 -10 -10 -10 -10 -10 -10 -10 -9 -9 -9 -8 -8 -7 -7 -7 -7 -7 -7 -7 -6 -6 -6 -7 -7 -8 -12 -17 -21 -26 -27 -28 -29 -30 -32 -33 -33 -33 -33 -33 -33 -32 -31 -30 -29 -28 -27 -26
-11 -11 -13 -13 -12 -10 -10 -10 -10 -10 -10 -10 -10 -10 -10 -10 -10 -9 -9 -8 -7 -7 -7 -6 -6 -7 -7 -9 -12 -13 -16 -19 -25 -27 -27 -27 -28 -31 -32 -33 -32 -32 -32 -32 -31 -30 -28 -27 -26 -24 -23 -21 -20 -18
-9 -9 -9 -9 -10 -10 -10 -11 -11 -10 -10 -9 -10 -12 -12 -12 -10 -10 -9 -8 -8 -7 -7 -7 -7 -8 -9 -12 -15 -22 -25 -26 -26 -27 -28 -30 -31 -32 -31 -30 -30 -29 -29 -28 -27 -25 -23 -21 -20 -19 -17 -16 -15 -15

GFSWCAN_850_dewp_279.txt.gz
Dewpoint
-8 -8 -8 -8 -8 -8 -8 -8 -9 -8 -7 -6 -6 -7 -6 -5 -5 -4 -4 -6 -6 -6 -7 -6 -6 -4 -3 -3 -1 -1 -2 -2 -2 -0 0 -1 -0 -1 -2 -3 -3 -3 -1 -2 -2 -2 -4 -9 -8 -5 -6 -9 -8 -8
-8 -8 -9 -9 -9 -8 -9 -9 -9 -8 -7 -6 -6 -8 -8 -7 -6 -4 -4 -5 -5 -6 -8 -9 -10 -9 -8 -6 -4 -3 -1 -0 -2 -1 -1 -1 -1 -1 -1 1 -3 -3 -3 -1 -3 -4 -7 -9 -8 -9 -8 -7 -8 -9
-8 -8 -8 -8 -8 -8 -7 -8 -8 -9 -8 -7 -8 -8 -9 -8 -8 -5 -5 -4 -5 -5 -6 -8 -15 -17 -10 -8 -8 -4 -2 -0 -1 -1 -1 -2 -1 -3 -1 -2 -2 -3 -4 -2 -4 -4 -5 -8 -10 -9 -9 -9 -9 -9
-7 -7 -7 -7 -7 -8 -8 -8 -8 -8 -7 -7 -8 -7 -7 -8 -8 -6 -4 -4 -5 -6 -7 -10 -13 -14 -14 -14 -11 -8 -6 -4 -3 -3 -1 0 -0 -4 -2 -3 -2 -3 -3 -3 -3 -4 -5 -6 -8 -9 -9 -9 -9 -9
-7 -7 -7 -7 -7 -7 -7 -7 -8 -8 -8 -7 -6 -6 -7 -7 -7 -7 -5 -4 -4 -6 -6 -9 -13 -16 -16 -13 -10 -10 -9 -6 -4 -3 -0 1 -2 -2 -2 -4 -3 -4 -3 -2 -1 -6 -5 -7 -10 -10 -11 -10 -10 -8
-6 -6 -7 -6 -6 -6 -7 -7 -7 -7 -7 -7 -6 -6 -6 -7 -6 -6 -5 -5 -4 -5 -6 -7 -11 -14 -14 -16 -13 -9 -9 -9 -4 -3 -2 -1 -0 1 1 -1 -5 -7 -6 -6 -6 -8 -8 -8 -9 -10 -9 -8 -9 -7
-5 -6 -5 -6 -6 -5 -5 -6 -6 -7 -7 -6 -6 -6 -6 -6 -5 -5 -5 -5 -5 -5 -6 -8 -9 -13 -15 -14 -12 -11 -10 -5 -4 -4 -2 -1 -0 0 1 0 -4 -6 -8 -8 -8 -8 -7 -8 -9 -9 -9 -8 -8 -7
-6 -6 -7 -6 -6 -5 -5 -5 -5 -6 -6 -6 -6 -6 -6 -7 -5 -4 -5 -5 -5 -5 -6 -7 -7 -10 -13 -10 -10 -11 -7 -4 -4 -4 -2 -1 -1 -1 1 -3 -4 -6 -5 -6 -8 -9 -10 -10 -9 -9 -8 -7 -7 -7
-7 -7 -7 -8 -8 -6 -6 -5 -5 -5 -6 -6 -7 -6 -6 -5 -5 -5 -4 -4 -5 -5 -6 -6 -8 -8 -11 -5 -6 -4 -6 -3 -5 -3 -4 -2 -2 0 -2 -3 -2 -4 -3 -4 -6 -8 -8 -8 -8 -7 -7 -7 -7 -7
-8 -9 -9 -9 -8 -7 -7 -8 -6 -5 -5 -5 -5 -5 -5 -5 -6 -5 -5 -5 -5 -5 -6 -7 -8 -9 -12 -6 -5 -5 -3 -4 -3 -4 -5 -2 -3 -6 -4 -5 -6 -7 -7 -5 -4 -5 -6 -6 -7 -7 -7 -6 -6 -7
-8 -10 -10 -7 -6 -6 -4 -6 -9 -5 -4 -5 -4 -5 -6 -5 -4 -4 -5 -5 -6 -6 -7 -7 -8 -9 -13 -9 -8 -14 -5 -4 -3 -5 -3 -5 -5 -5 -5 -3 -4 -7 -7 -6 -7 -5 -6 -7 -7 -7 -7 -6 -6 -7
-10 -8 -7 -6 -6 -5 -4 -4 -8 -4 -5 -5 -5 -6 -5 -5 -6 -6 -6 -7 -7 -7 -7 -7 -7 -10 -12 -10 -6 -6 -7 -6 -6 -2 -3 -5 -6 -8 -5 -4 -4 -5 -6 -7 -5 -4 -4 -5 -6 -6 -7 -7 -7 -7
-10 -7 -6 -5 -5 -5 -4 -4 -6 -4 -5 -5 -5 -5 -5 -6 -6 -7 -8 -7 -7 -8 -7 -7 -7 -10 -9 -9 -7 -5 -4 -5 -7 -3 -3 -6 -9 -9 -7 -6 -6 -8 -8 -5 -6 -5 -5 -5 -5 -5 -7 -6 -6 -8
-6 -6 -5 -4 -4 -5 -4 -4 -6 -4 -5 -5 -6 -6 -7 -8 -8 -8 -9 -9 -9 -7 -7 -8 -7 -7 -9 -6 -7 -6 -8 -7 -8 -7 -8 -10 -7 -9 -10 -8 -8 -10 -12 -6 -7 -5 -6 -6 -6 -5 -6 -6 -6 -7
-4 -4 -4 -4 -4 -4 -4 -4 -5 -4 -6 -6 -8 -8 -7 -9 -9 -10 -11 -10 -11 -11 -8 -8 -7 -7 -6 -7 -7 -8 -7 -8 -13 -12 -8 -5 -6 -7 -7 -6 -8 -8 -7 -6 -6 -6 -8 -7 -6 -5 -6 -6 -6 -7
-4 -5 -4 -4 -4 -4 -4 -4 -5 -5 -7 -8 -8 -7 -7 -8 -8 -9 -10 -8 -9 -8 -10 -11 -6 -6 -7 -8 -7 -7 -13 -15 -10 -4 -4 -6 -6 -6 -6 -7 -7 -8 -8 -8 -7 -7 -7 -5 -5 -6 -6 -6 -7 -8
-4 -5 -4 -3 -3 -4 -4 -5 -5 -6 -8 -7 -8 -9 -10 -10 -9 -12 -12 -10 -9 -9 -7 -7 -6 -8 -8 -7 -9 -13 -12 -12 -10 -9 -10 -8 -7 -5 -6 -6 -7 -7 -7 -6 -6 -6 -6 -6 -5 -5 -5 -6 -6 -6
-5 -5 -4 -5 -5 -5 -6 -8 -7 -8 -8 -8 -7 -9 -11 -12 -12 -11 -12 -12 -8 -9 -10 -9 -9 -7 -7 -8 -11 -6 -8 -11 -10 -13 -12 -10 -7 -4 -5 -8 -7 -8 -7 -7 -6 -5 -4 -4 -4 -4 -5 -5 -6 -7
-5 -5 -5 -5 -5 -7 -5 -10 -12 -8 -9 -9 -9 -9 -9 -10 -12 -13 -14 -13 -11 -11 -13 -12 -9 -8 -12 -11 -14 -16 -18 -18 -14 -11 -9 -9 -7 -3 -5 -7 -8 -9 -9 -8 -8 -8 -9 -9 -9 -9 -9 -8 -7 -6
-6 -7 -11 -11 -10 -13 -12 -12 -14 -12 -7 -11 -9 -8 -8 -10 -10 -10 -10 -10 -10 -13 -9 -6 -9 -8 -11 -15 -13 -11 -10 -8 -8 -9 -8 -7 -4 -3 -5 -5 -8 -9 -8 -8 -8 -8 -8 -8 -8 -7 -6 -6 -5 -5
-12 -12 -13 -15 -15 -14 -9 -7 -7 -8 -8 -7 -8 -9 -10 -10 -11 -10 -7 -8 -8 -6 -6 -9 -10 -11 -13 -12 -11 -11 -9 -8 -9 -7 -5 -4 -4 -3 -3 -3 -5 -5 -5 -5 -5 -5 -5 -5 -5 -5 -5 -5 -5 -5
-7 -8 -9 -10 -12 -10 -9 -7 -6 -5 -6 -5 -5 -6 -5 -6 -6 -9 -10 -7 -6 -9 -9 -10 -12 -13 -12 -11 -10 -12 -12 -8 -4 -3 -3 -3 -3 -3 -3 -4 -4 -4 -4 -4 -4 -4 -4 -4 -4 -4 -4 -4 -4 -5
-7 -7 -6 -6 -6 -6 -6 -5 -5 -5 -5 -4 -5 -5 -4 -5 -5 -8 -6 -7 -9 -12 -12 -11 -12 -12 -11 -8 -4 -3 -3 -3 -3 -4 -4 -3 -3 -3 -4 -4 -4 -4 -4 -4 -4 -4 -4 -5 -5 -5 -5 -5 -5 -6
-6 -6 -6 -5 -5 -6 -5 -5 -5 -4 -4 -4 -3 -3 -4 -4 -5 -4 -4 -5 -6 -4 -6 -8 -7 -5 -4 -3 -3 -4 -4 -4 -4 -4 -4 -3 -4 -4 -4 -5 -5 -5 -5 -5 -5 -5 -6 -6 -6 -6 -6 -7 -10 -12
-5 -7 -6 -10 -5 -6 -7 -8 -8 -8 -5 -5 -5 -4 -5 -4 -5 -5 -6 -7 -7 -5 -4 -4 -3 -4 -4 -5 -4 -4 -4 -4 -4 -4 -4 -4 -4 -5 -5 -5 -6 -6 -6 -6 -6 -7 -7 -7 -10 -11 -12 -11 -9 -7
-8 -7 -8 -9 -8 -6 -7 -9 -8 -8 -9 -8 -7 -7 -6 -7 -7 -7 -8 -8 -8 -6 -5 -4 -4 -4 -4 -5 -5 -5 -5 -5 -4 -5 -6 -6 -6 -6 -7 -7 -8 -8 -8 -8 -9 -9 -9 -8 -6 -6 -6 -7 -8 -12
-9 -10 -7 -6 -6 -6 -10 -9 -8 -8 -7 -7 -8 -10 -9 -8 -8 -8 -8 -8 -7 -6 -5 -4 -4 -5 -5 -5 -5 -6 -5 -5 -5 -6 -6 -6 -6 -6 -6 -6 -7 -7 -5 -5 -6 -6 -8 -10 -12 -14 -16 -13 -9 -8
-7 -8 -9 -8 -9 -9 -13 -12 -8 -8 -8 -8 -12 -11 -11 -10 -9 -9 -9 -8 -7 -6 -5 -5 -5 -5 -5 -6 -6 -6 -6 -6 -6 -6 -6 -6 -6 -6 -7 -7 -7 -7 -7 -7 -7 -7 -8 -8 -8 -10 -14 -20 -26 -28
-7 -7 -9 -15 -12 -11 -10 -10 -11 -9 -9 -10 -12 -12 -10 -10 -9 -8 -8 -8 -7 -7 -6 -6 -6 -6 -6 -7 -7 -7 -7 -6 -6 -7 -8 -8 -8 -8 -8 -8 -9 -11 -12 -14 -19 -23 -25 -27 -29 -30 -30 -31 -32 -34
-8 -9 -12 -16 -15 -12 -10 -10 -9 -10 -10 -10 -10 -10 -10 -10 -9 -8 -8 -8 -7 -7 -7 -7 -7 -7 -7 -7 -7 -7 -7 -7 -7 -8 -8 -10 -12 -14 -17 -21 -24 -26 -28 -29 -30 -31 -32 -33 -33 -34 -33 -33 -32 -32
-9 -11 -11 -12 -13 -10 -10 -10 -10 -10 -10 -10 -10 -10 -10 -9 -9 -8 -8 -8 -7 -7 -7 -7 -7 -7 -7 -7 -7 -7 -7 -7 -8 -9 -15 -25 -26 -28 -29 -31 -32 -33 -33 -34 -34 -33 -32 -31 -30 -29 -27 -26 -24 -23
-11 -10 -13 -13 -12 -10 -10 -10 -10 -10 -9 -10 -10 -10 -10 -10 -9 -9 -8 -8 -8 -7 -7 -7 -7 -7 -7 -7 -7 -8 -13 -16 -24 -27 -27 -28 -30 -32 -33 -33 -31 -31 -31 -30 -29 -28 -27 -26 -24 -23 -22 -20 -19 -17
-10 -10 -10 -10 -11 -11 -10 -11 -11 -11 -11 -10 -10 -11 -12 -11 -10 -9 -8 -8 -7 -7 -7 -7 -7 -8 -10 -12 -18 -22 -26 -27 -27 -29 -30 -32 -32 -32 -32 -30 -29 -28 -28 -27 -26 -24 -22 -21 -19 -18 -17 -16 -15 -14